Preview of NWS' New Version of Forecast
This preview is not operational and should not be used for support decisions.
Latest weather observations around

Parsons, Tri-City Airport (KPPF)

Using English Units (Switch to International System of Units)
Date/ Time (CST) Wind (mph) Vis. (mi) Weather Sky Cond. Temp (°F) Rel. Humidity Wind Chill (°F) Heat Index (°F) Pressure Precip. (in)
Air Dwpt 6 hour Altimeter (inHg) Sea level (inHg) 1 hr 3 hr 6 hr
Max Min
Jan 16 11:52 3 6 Fog/Mist OVC030 45 41     86% 44   30.15 30.16      
Jan 16 11:16 SE 6 6 Fog/Mist OVC030 44 40     85% 41   30.17        
Jan 16 10:52 5 6 Fog/Mist OVC029 43 40     89% 40   30.19 30.19      
Jan 16 09:52 3 6 Fog/Mist OVC024 42 39     89% 40   30.17 30.18      
Jan 16 08:52 SE 3 5 Fog/Mist OVC027 41 39     93% 39   30.18 30.19      
Jan 16 07:52 SSE 3 6 Fog/Mist OVC027 40 38     93% 38   30.18 30.19      
Jan 16 06:52 S 3 6 Fog/Mist OVC026 40 39     97% 38   30.19 30.2      
Jan 16 05:52 S 5 6 Fog/Mist OVC025 40 38     93% 37   30.17 30.17      
Jan 16 04:52 Calm 6 Fog/Mist OVC024 40 38     93%     30.16 30.16      
Jan 16 03:52 3 6 Fog/Mist OVC023 39 38     96% 37   30.17 30.17      
Jan 16 02:52 SSW 5 6 Fog/Mist OVC023 37 36     96% 33   30.18 30.19      
Jan 16 01:52 S 3 6 Fog/Mist OVC023 36 35     96% 33   30.18 30.19      
Jan 16 01:43 S 5 5 Fog/Mist BKN023 35 34     96% 31   30.18        
Jan 16 00:52 S 5 5 Fog/Mist CLR 36 34     92% 32   30.19 30.2      
Jan 15 23:52 S 5 5 Fog/Mist CLR 36 34     92% 32   30.2 30.22      
Jan 15 22:52 S 3 6 Fog/Mist CLR 37 35     92% 35   30.2 30.22      
Jan 15 21:52 SSW 7 7 Clear CLR 38 36     92% 33   30.19 30.21      
Jan 15 20:52 S 5 8 Clear CLR 39 36     89% 36   30.18 30.19      
Jan 15 19:52 S 7 10 Clear CLR 41 37     86% 36   30.17 30.19      
Jan 15 18:52 S 7 10 Clear CLR 42 38     85% 38   30.16 30.18      
Jan 15 17:52 S 3 10 Clear CLR 44 39     82% 43   30.15 30.16      
Jan 15 16:52 SSW 5 10 Clear CLR 47 40     76% 45   30.15 30.16      
Jan 15 15:52 SW 8 10 Clear CLR 48 39     71% 44   30.16 30.17      
Jan 15 14:52 SW 9 9 Clear CLR 46 39     76% 41   30.17 30.18      
Jan 15 13:52 SSW 7 7 Mostly Clear FEW012 43 37     79% 39   30.18 30.19      
Jan 15 13:01 SSW 7 7 Partly Cloudy SCT010 40 35     83% 35   30.21        
Jan 15 12:52 SSW 7 7 Mostly Cloudy BKN010 39 35     86% 34   30.21 30.23      
Jan 15 11:52 S 9 5 Fog/Mist OVC007 36 33     89% 29   30.26 30.27      
Jan 15 11:24 S 7 5 Fog/Mist OVC006 35 32     88% 29   30.28        
Jan 15 10:59 SSW 7 4 Fog/Mist OVC005 33 32     96% 27   30.29        
Jan 15 10:52 SSW 9 4 Fog/Mist OVC004 33 32     96% 25   30.3 30.32      
Jan 15 09:52 S 8 3 Clear   32 31     96% 25   30.3 30.32      
Jan 15 09:44 SSW 7 3 Fog/Mist OVC003 32 31     96% 26   30.29        
Jan 15 08:52 S 9 2.5 Fog/Mist OVC003 31 30     96% 23   30.29 30.3      
Jan 15 08:36 S 9 2.5 Fog/Mist OVC003 30 30     100% 22   30.29        
Jan 15 07:52 S 6 3 Fog/Mist OVC004 30 30     100% 24   30.29 30.31      
Jan 15 07:50 S 8 3 Fog/Mist OVC004 30 30     100% 23   30.29        
Jan 15 06:52 S 6 4 Fog/Mist OVC005 30 29     96% 24   30.28 30.3      
Jan 15 06:00 S 5 4 Fog/Mist OVC005 30 29     96% 25   30.28        
Jan 15 05:52 S 6 4 Fog/Mist OVC006 30 29     96% 24   30.28 30.3      
Jan 15 05:48 S 5 4 Fog/Mist OVC006 30 28     93% 25   30.28        
Jan 15 05:23 S 6 4 Fog/Mist BKN005 29 29     100% 23   30.28        
Jan 15 04:52 S 6 4 Fog/Mist FEW004 30 29     96% 24   30.28 30.31      
Jan 15 03:52 SSE 6 5 Fog/Mist CLR 30 29     96% 24   30.3 30.32      
Jan 15 02:52 SSE 3 5 Fog/Mist CLR 30 29     96% 27   30.32 30.34      
Jan 15 01:52 SSE 3 5 Fog/Mist CLR 31 30     96% 28   30.31 30.33      
Jan 15 01:43 SSE 3 5 Fog/Mist SCT009 31 30     96% 28   30.32        
Jan 15 00:52 S 5 5 Fog/Mist OVC009 32 30     92% 27   30.34 30.36      
Jan 14 23:52 Calm 6 Fog/Mist OVC008 32 31     96%     30.35 30.37      
Jan 14 22:52 SW 3 8 Cloudy OVC009 33 31     92% 30   30.36 30.38      
Jan 14 21:52 SW 7 7 Cloudy OVC008 33 31     92% 27   30.35 30.37      
Jan 14 20:52 SSW 5 6 Fog/Mist OVC008 33 31     92% 29   30.35 30.37      
Jan 14 19:52 SW 6 6 Fog/Mist OVC009 33 31     92% 28   30.36 30.38      
Jan 14 18:52 SW 5 8 Cloudy OVC009 33 30     88% 29   30.36 30.38      
Jan 14 17:52 SSW 5 8 Cloudy OVC008 32 30     92% 27   30.36 30.38      
Jan 14 16:52 SW 6 7 Cloudy OVC008 32 30     92% 26   30.35 30.38      
Jan 14 15:52 SW 8 7 Cloudy OVC008 32 30     92% 25   30.37 30.39      
Jan 14 14:52 SW 8 7 Cloudy OVC007 32 29     88% 25   30.38 30.4      
Jan 14 13:52 SW 6 7 Cloudy OVC007 32 29     88% 26   30.39 30.41      
Jan 14 12:52 SSW 5 6 Fog/Mist OVC006 31 29     92% 26   30.41 30.44      
Jan 14 11:52 WSW 3 6 Fog/Mist OVC006 30 28     92% 27   30.45 30.47      
Jan 14 11:29 WSW 6 6 Fog/Mist OVC006 30 28     92% 24   30.46        
Jan 14 10:52 WSW 6 5 Fog/Mist OVC005 30 29     96% 24   30.48 30.5      
Jan 14 10:32 W 5 5 Fog/Mist OVC005 30 28     92% 25   30.48        
Jan 14 09:52 SW 7 4 Fog/Mist OVC004 29 29     100% 22   30.47 30.5      
Jan 14 08:52 SW 5 4 Fog/Mist OVC003 29 28     96% 24   30.45 30.48      
Jan 14 07:52 W 7 5 Fog/Mist OVC004 29 28     96% 22   30.46 30.48      
Jan 14 06:52 W 5 4 Fog/Mist OVC004 29 28     96% 24   30.46 30.48      
Jan 14 05:52 Calm 4 Fog/Mist OVC004 29 28     96%     30.45 30.47      
Jan 14 05:23 W 5 5 Fog/Mist OVC004 29 28     96% 24   30.45        
Jan 14 04:52 W 5 5 Fog/Mist OVC005 29 28     96% 24   30.46 30.48      
Jan 14 04:43 W 3 5 Fog/Mist OVC005 29 28     96% 25   30.46        
Jan 14 04:25 NNW 3 6 Fog/Mist OVC006 29 28     96% 25   30.46        
Jan 14 03:52 WNW 3 5 Fog/Mist OVC005 29 28     96% 25   30.46 30.49      
Jan 14 03:23 WNW 3 6 Fog/Mist OVC006 30 28     92% 27   30.48        
Jan 14 03:02 NNW 3 6 Fog/Mist OVC005 30 28     92% 27   30.47        
Jan 14 02:52 Calm 6 Fog/Mist OVC006 30 28     92%     30.47 30.5      
Jan 14 01:52 Calm 6 Fog/Mist OVC006 30 28     92%     30.46 30.48      
Jan 14 00:52 Calm 6 Fog/Mist OVC006 30 28     92%     30.46 30.49      
Jan 13 23:52 WNW 3 7 Cloudy OVC007 30 28     92% 27   30.48 30.51      
Jan 13 22:52 Calm 8 Cloudy OVC008 31 28     89%     30.48 30.5      
Jan 13 21:52 N 7 8 Cloudy OVC008 30 28     92% 23   30.47 30.5      
Jan 13 20:52 N 6 6 Fog/Mist OVC008 31 29     92% 25   30.47 30.49      
Jan 13 19:52 NNW 5 7 Cloudy OVC008 31 29     92% 26   30.47 30.5      
Jan 13 18:52 NNW 7 7 Cloudy OVC008 31 29     92% 24   30.47 30.49      
Jan 13 17:52 N 7 8 Cloudy OVC009 31 28     89% 24   30.46 30.48      
Jan 13 17:38 NNW 6 9 Cloudy OVC009 31 29     92% 25   30.45        
Jan 13 16:52 N 6 9 Cloudy OVC011 32 29     88% 26   30.44 30.46      
Jan 13 15:52 N 6 9 Cloudy OVC012 32 29     88% 26   30.44 30.46      
Jan 13 14:52 N 7 9 Cloudy OVC012 32 29     88% 26   30.43 30.45      
Jan 13 13:52 N 8 8 Clear   33 29     85% 26   30.43 30.45      
Jan 13 13:21 N 8 4 Fog/Mist BKN010 OVC015 33 30     88% 26   30.42        
Jan 13 12:52 N 7 4 Fog/Mist BKN008 OVC017 32 30     92% 26   30.43 30.45      
May 15 13:52 SW 8 10 Cloudy BKN033 OVC042 78 68     71%   79 29.98 29.96      
May 15 03:52   10 Clear   64 62     93%     29.94 29.91 0 0  
May 14 23:34 NNE 10 7 Light Rain SCT020 OVC060 65 63     93%     29.96   1    
May 14 23:12   1.25 Heavy Rain and Fog/Mist BKN020 OVC049 62 61     96%     30.01   0    
May 14 05:52 S 7 10 Clear CLR 72 66     82%   73 29.92 29.89      
May 14 01:52 S 3 10 Clear CLR 72 65     79%   73 29.96 29.92      
May 13 15:52 S 10 10 Mostly Clear FEW045 89 69     52%   94 29.93 29.9      
May 12 07:52 S 9 10 Clear CLR 73 65     76%   74 29.88 29.85      
May 11 20:52 S 15 10 Clear CLR 78 63     60%   78 29.79 29.76      
Jun 11 14:52 S 15 10 Mostly Clear FEW044 88 68     52%   92 29.88 29.85      
Jun 11 13:52 S 17 10 Clear CLR 88 68     52%   92 29.89 29.85      
Jun 10 17:52 S 13 10 Clear   85 68     57%   88 29.79 29.76      
Jun 10 14:52 S 17 10 Mostly Cloudy BKN037 86 68     55%   89 29.83 29.79      
Jun 09 16:52 S 8 10 Clear CLR 83 59     44%   83 29.87 29.85      
Jun 07 23:52 Calm 10 Clear CLR 59 55     87%     30.06 30.04      
Jun 07 22:52 Calm 10 Clear CLR 59 55     87%     30.06 30.04      
Jun 07 14:52 E 8 10 Clear CLR 81 49     33%   80 30.07 30.04      
Jun 06 12:52 NE 8 10 Clear CLR 85 60     43%   85 29.98 29.95